Regional Weather Roundup
Issued by NWS Kansas City/Pleasant Hill, MO

Home | Current Version | Previous Version | Graphics & Text | Print | Product List | Glossary Off
Versions: 1 2 3 4 5 6 7 8 9 10 11 12 13 14 15 16 17 18 19 20 21 22 23 24 25 26 27 28 29 30 31 32 33 34 35 36 37 38 39 40 41 42 43 44 45 46 47 48 49 50

000
ASUS43 KEAX 311404
RWREAX

WEATHER ROUNDUP FOR EASTERN KANSAS AND NORTHWEST MISSOURI
NATIONAL WEATHER SERVICE KANSAS CITY/PLEASANT HILL MO
800 AM CST SAT JAN 31 2015

KSZ040-057-103>105-MOZ028-029-037-043-311500-
...KANSAS CITY METROPOLITAN AREA...

CITY           SKY/WX    TMP DP  RH WIND       PRES   REMARKS
K.C. INTL      LGT RAIN  34  33  96 SE6       30.23F FOG     WCI  29
K.C. DOWNTOWN  LGT RAIN  36  33  89 E6        30.25F WCI  31
LEES SUMMIT    LGT RAIN  34  32  92 SE7       30.25S WCI  28
OLATHE - IXD   LGT RAIN  35  34  96 E5        30.23F FOG     WCI  31
OLATHE - OJC   LGT RAIN  35  34  96 E3        30.23S FOG
LAWRENCE       LGT RAIN  34  32  92 E7        30.24S FOG     WCI  28

$$

MOZ001>008-011>017-020>025-030>033-038>040-044>046-053-054-311500-
...NORTHERN AND CENTRAL MISSOURI...

CITY           SKY/WX    TMP DP  RH WIND       PRES   REMARKS
ST. JOSEPH     LGT RAIN  34  34 100 CALM      30.25F FOG
MOSBY          LGT RAIN  32  32 100 CALM      30.26F
WARRENSBURG    DRIZZLE   32  32 100 CALM      30.27F
WHITEMAN AFB   LGT RAIN  33  30  90 CALM      30.27S
CLINTON        DRIZZLE   36  32  87 S3        30.29R
SEDALIA        LGT RAIN  35  30  82 S5        30.28F WCI  31
WARSAW         NOT AVBL
MARSHALL       MIX PCPN  36  30  80 CALM      30.29F
CHILLICOTHE      N/A     33  31  92 CALM      30.28S
MOBERLY        CLOUDY    34  21  60 SW5       30.29R WCI  30
KIRKSVILLE     CLOUDY    31  22  69 SW3       30.26F

$$

MOZ041-047>049-056>058-063>065-088>090-097-311500-
...EASTERN AND SOUTHERN MISSOURI...

CITY           SKY/WX    TMP DP  RH WIND       PRES   REMARKS
ST. LOUIS INTL CLOUDY    34  21  59 CALM      30.34S
SPIRIT OF STL  CLOUDY    30  25  81 CALM      30.33S
COLUMBIA       CLOUDY    33  22  63 S7        30.30R WCI  27
JEFFERSON CITY CLOUDY    32  24  72 SE5       30.32R WCI  27
HANNIBAL       CLOUDY    32  21  64 S7        30.29F WCI  26
ROLLA          CLOUDY    35  23  61 S10       30.29R WCI  27
LEBANON        CLOUDY    37  23  56 S6        30.28S WCI  33
OSAGE BEACH    CLOUDY    37  21  52 SE3       30.30R
SPRINGFIELD    CLOUDY    38  27  64 SE5       30.23F WCI  34
BRANSON        CLOUDY    37  25  60 SE14G20   30.26R WCI  29
NEVADA         LGT RAIN  36  34  93 E13       30.23F WCI  27
JOPLIN         CLOUDY    41  27  57 E8        30.24R
WEST PLAINS    CLOUDY    34  24  67 S3        30.33R

$$

IAZ060-094-KSZ022-034>040-054-083-096-NEZ052-066-093-311500-
...KANSAS...SOUTHEAST NEBRASKA AND IOWA...

CITY           SKY/WX    TMP DP  RH WIND       PRES   REMARKS
TOPEKA         CLOUDY    35  34  96 E7        30.21F FOG     WCI  29
MANHATTAN      CLOUDY    36  36 100 E3        30.18F
EMPORIA        CLOUDY    37  35  92 SE8       30.19R WCI  31
CHANUTE        CLOUDY    39  33  79 SE7       30.23R WCI  34
WICHITA        LGTSLEET  35  30  82 SE5       30.15F WCI  31
OMAHA          CLOUDY    37  34  89 S9        30.16F WCI  30
LINCOLN        FLURRIES  34  32  92 S9        30.15F WCI  27
FALLS CITY     RAIN      34  33  96 S7        30.21F FOG     WCI  28
LAMONI         CLOUDY    31  27  85 S10       30.22S WCI  22
DES MOINES     CLOUDY    36  29  75 SW7       30.19F WCI  30

$$



USA.gov is the U.S. government's official web portal to all federal, state and local government web resources and services.